Weather History for Ft Lauderdale, FL

Change the Weather History Date:

Thursday, April 3, 2014

  Actual Average Record
Temperature  
Mean Temperature 77 °F 75 °F  
Max Temperature 81 °F 82 °F 91 °F (1954)
Min Temperature 72 °F 68 °F 45 °F (1925)
Degree Days  
Heating Degree Days 0 0  
Month to date heating degree days 0 0  
Since 1 July heating degree days 81 111  
Cooling Degree Days 12 10  
Month to date cooling degree days 27 30  
Year to date cooling degree days 687 640  
Growing Degree Days 26 (Base 50)    
Moisture  
Dew Point 64 °F    
Average Humidity 66    
Maximum Humidity 74    
Minimum Humidity 58    
Precipitation  
Precipitation 0.00 in 0.11 in 2.70 in (1948)
Month to date precipitation 0.00 0.37  
Year to date precipitation 8.17 10.32  
Snow  
Snow 0.00 in - - ()
Month to date snowfall 0.0  
Since 1 July snowfall 0.0  
Snow Depth 0.00 in    
Sea Level Pressure  
Sea Level Pressure 30.11 in    
Wind  
Wind Speed 13 mph (ESE)    
Max Wind Speed 20 mph    
Max Gust Speed 25 mph    
Visibility 10 miles    
Events      
T = Trace of Precipitation, MM = Missing Value Source: NWS Daily Summary

Daily Weather History Graph

Daily Weather History Graph

Search for Another Location

Airport:

Trip Planner

Search our weather history database for the weather conditions in past years. The results will help you decide how hot, cold, wet, or windy it might be!

Date:

Astronomy

Apr. 03, 2014 Rise Set
Actual Time 7:09 AM EDT 7:38 PM EDT
Civil Twilight 6:46 AM EDT 8:01 PM EDT
Nautical Twilight 6:19 AM EDT 8:28 PM EDT
Astronomical Twilight 5:51 AM EDT 8:56 PM EDT
Moon 9:56 AM EDT (4/3) 11:36 PM EDT (4/3)
Length of Visible Light 13h 15m
Length of Day
12h 28m
Waxing Crescent, 17% of the Moon is Illuminated
Apr 3
Waxing Crescent
Apr 7
First Quarter
Apr 15
Full
Apr 22
Last Quarter
Apr 29
New

Hourly Weather History & Observations

Time (EDT) Temp. Heat Index Dew Point Humidity Pressure Visibility Wind Dir Wind Speed Gust Speed Precip Events Conditions
12:53 AM 73.9 °F - 62.1 °F 66% 30.15 in 10.0 mi ESE 10.4 mph - N/A   Mostly Cloudy
1:53 AM 73.9 °F - 62.1 °F 66% 30.13 in 10.0 mi ESE 11.5 mph - N/A   Scattered Clouds
2:53 AM 73.0 °F - 62.1 °F 68% 30.11 in 10.0 mi ESE 12.7 mph - N/A   Partly Cloudy
3:53 AM 73.0 °F - 62.1 °F 68% 30.10 in 10.0 mi ESE 12.7 mph - N/A   Scattered Clouds
4:53 AM 73.0 °F - 61.0 °F 66% 30.10 in 10.0 mi ESE 9.2 mph - N/A   Scattered Clouds
5:53 AM 73.0 °F - 62.1 °F 68% 30.11 in 10.0 mi ESE 11.5 mph - N/A   Partly Cloudy
6:53 AM 73.0 °F - 63.0 °F 71% 30.12 in 10.0 mi ESE 11.5 mph - N/A   Partly Cloudy
7:53 AM 73.0 °F - 62.1 °F 68% 30.12 in 10.0 mi SE 12.7 mph - N/A   Clear
8:53 AM 75.9 °F - 64.0 °F 67% 30.13 in 10.0 mi ESE 16.1 mph - N/A   Partly Cloudy
9:53 AM 77.0 °F - 64.0 °F 64% 30.14 in 10.0 mi ESE 15.0 mph - N/A   Mostly Cloudy
10:53 AM 79.0 °F - 64.0 °F 60% 30.15 in 10.0 mi SE 13.8 mph - N/A   Mostly Cloudy
11:53 AM 80.1 °F 81.9 °F 64.9 °F 60% 30.15 in 10.0 mi ESE 16.1 mph 23.0 mph N/A   Scattered Clouds
12:53 PM 79.0 °F - 66.0 °F 64% 30.14 in 10.0 mi SSE 15.0 mph 21.9 mph N/A   Scattered Clouds
1:53 PM 80.1 °F 82.1 °F 66.0 °F 62% 30.12 in 10.0 mi SE 16.1 mph 23.0 mph N/A   Scattered Clouds
2:53 PM 80.1 °F 82.1 °F 66.0 °F 62% 30.10 in 10.0 mi ESE 13.8 mph 20.7 mph N/A   Mostly Cloudy
3:53 PM 79.0 °F - 66.0 °F 64% 30.09 in 10.0 mi ESE 13.8 mph - N/A   Scattered Clouds
4:53 PM 78.1 °F - 66.0 °F 66% 30.07 in 10.0 mi SE 13.8 mph - N/A   Mostly Cloudy
5:53 PM 78.1 °F - 66.0 °F 66% 30.08 in 10.0 mi SE 11.5 mph - N/A   Mostly Cloudy
6:53 PM 77.0 °F - 66.0 °F 69% 30.08 in 10.0 mi ESE 11.5 mph - N/A   Mostly Cloudy
7:53 PM 75.9 °F - 66.0 °F 71% 30.08 in 10.0 mi SE 10.4 mph - N/A   Scattered Clouds
8:53 PM 75.0 °F - 66.9 °F 76% 30.08 in 10.0 mi East 11.5 mph - N/A   Mostly Cloudy
9:53 PM 75.9 °F - 66.0 °F 71% 30.08 in 10.0 mi ESE 12.7 mph - N/A   Partly Cloudy
11:53 PM 75.0 °F - 66.9 °F 76% 30.09 in 10.0 mi SE 9.2 mph - N/A   Partly Cloudy